www.pogodaiklimat.ru

Погода и климат >> Архив погоды >> Гондурас >> Choluteca


ПОГОДА в Choluteca

  • Прогноз погоды в Choluteca
  • Монитор погоды в Choluteca
  • Климат города

АРХИВ ПОГОДЫ в Choluteca

Время (UTC), дата Ветер
(напр.,м/с)
 
Видим.   Явления Облачность Т
(С)
Тd
(С)
f
(%)
Тe
(С)
Тes
(С)
Комфортность P
(гПа)
Po
(гПа)
Тmin
(С)
Tmax
(С)
R
(мм)
R24
(мм)
S
(см)
00 18.05 З 4 15 км гроза без осадков {туман} 9/6 900 м
[Cb cap Ac As Ci sp]
+30.0 +25.6 77 +44 +44 опасность
перегрева
1008.7 1003.0 +26.4 +34.0
03 18.05 З 4 15 км гроза без осадков {туман} 9/6 900 м
[Cb cap Ac As Ci sp]
+30.0 +25.6 77 +44 +44 опасность
перегрева
1008.7 1003.0 +26.4 +34.0
12 18.05 штиль 0 18 км мгла 6/1 900 м
[Sc Ac trans Ci fib]
+25.1 +24.1 94 +35 +35 очень
душно
1008.9 1003.2 +25.1 +34.0
15 18.05 штиль 0 20 км мгла {туман} 6/4 960 м
[Cu med, cong Ci fib]
+30.6 +24.7 71 +43 +53 опасность
перегрева
1010.0 1004.3
18 18.05 З 3 20 км мгла {туман} 6/5 1020 м
[Cu med, cong Ci fib]
+33.6 +25.8 64 +49 +58 опасность
перегрева
1008.8 1003.1 +25.1 +33.6
21 18.05 20 км мгла {туман} н/о +35.0 +26.6 62 +52 +57 опасность
перегрева
1005.7 1000.0
00 19.05 Ю 1 8000 м гроза, ливневой дождь 9/6 960 м
[Cb cap As op]
+24.6 +24.1 97 +34 +34 очень
душно
1006.3 1000.6 +24.6 +35.0 23
12 19.05 штиль 0 10 км дымка 8/5 180 м
[Frnb As op Ci fib]
+24.0 +24.0 100 +33 +33 очень
душно
1008.4 1002.7 +24.0 +35.0 6
15 19.05 штиль 0 15 км мгла {туман} 9/5 900 м
[Cu med, cong Ac As]
+29.2 +24.9 78 +42 +46 опасность
перегрева
1009.4 1003.7
18 19.05 штиль 0 15 км мгла {туман} 6/5 1020 м
[Cu med, cong Ac trans]
+32.4 +24.8 64 +45 +58 опасность
перегрева
1008.2 1002.5 +24.0 +32.4
21 19.05 Ю 4 15 км мгла {туман} 8/5 1020 м
[Cb cap Ac trans]
+34.0 +25.2 60 +48 +50 опасность
перегрева
1014.7 999.0
00 20.05 штиль 0 20 км мгла {туман} 9/5 1020 м
[Cb cap Ac trans Ci sp]
+32.0 +25.6 69 +47 +47 опасность
перегрева
1006.7 1001.0 +24.0 +35.0
12 20.05 штиль 0 18 км дымка 8/1 840 м
[Sc Ac trans Ci fib]
+24.4 +23.9 97 +33 +34 очень
душно
1008.4 1009.7 +24.4 +35.0 4
15 20.05 штиль 0 20 км мгла {туман} 5/3 960 м
[Cu hum Ac trans Ci fib]
+31.0 +24.7 69 +44 +54 опасность
перегрева
1009.4 1003.7
18 20.05 Ю 1 25 км 5/4 1020 м
[Cu med, cong Ci fib]
+33.0 +25.1 63 +47 +61 опасность
перегрева
1009.4 1003.7 +24.4 +33.0
21 20.05 ЮЗ 2 12 км гроза без осадков 8/5 1020 м
[Cb cap Ci sp]
+34.8 +26.1 61 +51 +55 опасность
перегрева
1007.2 1001.5
00 21.05 ЮЗ 3 18 км гроза без осадков {морось} 9/5 960 м
[Cb cap Ac As]
+30.1 +25.1 75 +44 +44 опасность
перегрева
1008.9 1003.2 +24.4 +34.8 0.0
12 21.05 штиль 0 15 км дымка 10/5 180 м
[Frnb As op Cs]
+24.0 +24.0 100 +33 +33 очень
душно
1010.4 1004.7 +24.0 +34.8 8
15 21.05 штиль 0 20 км мгла {туман} 9/3 900 м
[Cu hum Ac As Cs]
+28.4 +25.5 84 +42 +49 опасность
перегрева
1011.4 1005.7
18 21.05 Ю 4 20 км мгла {туман} 9/5 1020 м
[Cu med, cong As op Cs]
+33.2 +26.4 68 +50 +54 опасность
перегрева
1009.7 1004.0 +24.0 +33.2
21 21.05 штиль 0 10 км гроза без осадков {дождь} 10/6 900 м
[Cb cap As op]
+25.0 +25.0 100 +36 +37 очень
душно
1008.7 1003.0 6
00 22.05 штиль 0 20 км мгла {гроза, дождь} 10/5 180 м
[Frnb As op]
+27.4 +25.5 89 +40 +40 очень
душно
1009.4 1003.7 +24.0 +33.4 6
12 22.05 СВ 1 25 км дымка 8/1 900 м
[Sc Ac trans Ci fib]
+25.0 +21.6 81 +32 +32 очень
душно
1010.6 1004.9 +25.0 +33.4
18 22.05 штиль 0 25 км мгла {туман} 9/4 960 м
[Cu hum Ac As]
+29.8 +24.1 72 +42 +49 опасность
перегрева
1012.5 1006.8 +25.0 +29.8
21 22.05 ЮЗ 1 28 км мгла {туман} 9/5 960 м
[Cb cap Ac trans]
+31.4 +24.7 68 +45 +48 опасность
перегрева
1009.2 1003.5
12 23.05 штиль 0 10 км дымка 8/3 900 м
[Sc Ac As]
+24.0 +23.9 99 +33 +33 очень
душно
1010.9 1005.2 +24.4 +32.0
15 23.05 С 6 20 км мгла {туман} 5/3 900 м
[Cu hum Ci fib]
+30.6 +24.4 70 +43 +46 опасность
перегрева
1012.1 1006.4
18 23.05 Ю 5 20 км мгла {туман} 4/4 1020 м
[Cu med, cong]
+34.0 +25.2 60 +48 +55 опасность
перегрева
1010.7 1005.0 +24.4 +34.0
21 23.05 Ю 5 15 км гроза без осадков {туман} 9/6 1020 м
[Cb cap Ci sp]
+35.0 +27.1 64 +53 +55 опасность
перегрева
1008.7 1003.0
00 24.05 З 5 10 км гроза без осадков {дождь} 10/6 900 м
[Cb cap As op]
+26.4 +24.6 90 +37 +37 очень
душно
1009.7 1004.0 +24.4 +35.0 4
15 24.05 СВ 1 15 км мгла {туман} 6/3 960 м
[Cu hum Ci fib]
+31.0 +24.1 67 +43 +52 опасность
перегрева
1010.8 1005.1
18 24.05 ЮЗ 1 25 км мгла {туман} 6/5 1020 м
[Cu med, cong Ac trans Ci fib]
+32.9 +25.9 67 +49 +60 опасность
перегрева
1010.0 1004.3 +24.0 +32.9

 

Местоположение метеостанции Choluteca (Гондурас): широта 13.30 долгота -87.18 высота над уровнем моря 48 м.

В архиве по умолчанию представлена погода в Choluteca за последнюю неделю. Архивные данные за месяц целиком и за предыдущие месяцы, начиная с января 2011 года, Вы можете получить, выбрав интересующий диапазон дат из раскрывающегося списка и нажав кнопку "Ввод!".

Внимание! Время в таблицах - всемирное. Для получения местного времени необходимо прибавить поправку, которая в Choluteca равна -6 ч.

Смотрите также архив погоды в соседних городах и на ближайших метеорологических станциях:

Погода в Amapala (Гондурас) (51 км)
Погода в Chinandega (Никарагуа) (75 км)
Погода в Tegucigalpa (Гондурас) (83 км)
Погода в Jinotega (Никарагуа) (132 км)
Погода в La Esperanza (Гондурас) (155 км)
Погода в Managua (Никарагуа) (168 км)
Погода в Yoro (Гондурас) (208 км)
Погода в Catacamas (Гондурас) (223 км)
Погода в Juigalpa (Никарагуа) (237 км)
Погода в Santa Rosa De Copan (Гондурас) (239 км)

Пояснения к столбцам:

Ветер - указаны скорость ветра в м/с - средняя за 10 мин, порывы в срок и между сроками (в фигурных скобках) и направление, откуда дует ветер: С - северный, СВ - северо-восточный, В - восточный, ЮВ - юго-восточный, Ю - южный, ЮЗ - юго-западный, З - западный, СЗ - северо-западный.
Видимость - горизонтальная дальность видимости в метрах или километрах. При видимости от 1 до 10 км при отсутствии осадков обычно наблюдается дымка, при ухудшении видимости до 1 км и менее - туман. В сухую погоду видимость может ухудшаться дымом, пылью или мглою.
Явления - указаны атмосферные явления, наблюдавшиеся в срок или в последний час перед сроком; фигурными скобками обозначены явления, наблюдавшиеся между сроками (за 1-3 часа до срока); квадратными скобками обозначены град или гололедные отложения с указанием их диаметра в мм.
Облачность - указаны через наклонную черту общая и нижняя облачность в баллах и высота нижней границы облаков в метрах; квадратными скобками обозначены формы облаков: Ci - перистые, Cs - перисто-слоистые, Cc - перисто-кучевые, Ac - высококучевые, As - высокослоистые, Sc - слоисто-кучевые, Ns - слоисто-дождевые, Cu - кучевые, Cb - кучево-дождевые. Подробнее классификацию облаков см. в Атласе облаков (PDF).
T - Температура воздуха - температура, измеренная на высоте 2 м над землей.
Td - Температура точки росы - температура, при понижении до которой содержащийся в воздухе водяной пар достигнет насыщения.
f - Относительная влажность воздуха - влажноcть воздуха, измеренная на высоте 2 м над землей.
Te - Эффективная температура - температура, которую ощущает одетый по сезону человек в тени. Характеристика душности погоды. При расчете учитывается влияние влажности воздуха и скорости ветра на теплоощущения человека.
Tes - Эффективная температура на солнце - температура, которую ощущает человек, с поправкой на солнечный нагрев. Характеристика знойности погоды. Зависит от высоты солнца над горизонтом, облачности и скорости ветра. Ночью, в пасмурную погоду, а также при ветре 12 м/с и более поправка равна нулю.
P - Атмосферное давление - приведенное к уровню моря атмосферное давление.
Po - Атмосферное давление - измеренное на уровне метеостанции атмосферное давление.
Tmin - Минимальная температура - минимум температуры воздуха на высоте 2 м над землей.
Tmax - Максимальная температура - максимум температуры воздуха на высоте 2 м над землей.
R - Количество осадков - Количество выпавших осадков за период времени, мм. При наведении курсора мыши на число - период времени, за который выпало указанное количество осадков.
R24 - Количество осадков - Количество выпавших осадков за 24 часа, мм.
S - Снежный покров - Высота снежного покрова, см. При наведении курсора мыши на число - состояние снежного покрова и степень покрытия местности в баллах.